Weather History for Lander, WY

Change the Weather History Date:

Wednesday, January 15, 2014

  Actual Average Record
Temperature  
Mean Temperature 36 °F 22 °F  
Max Temperature 51 °F 33 °F 60 °F (1974)
Min Temperature 21 °F 10 °F -24 °F (1930)
Degree Days  
Heating Degree Days 29 43  
Month to date heating degree days 644 654  
Since 1 July heating degree days 3917 3900  
Cooling Degree Days 0 0  
Month to date cooling degree days 0 0  
Year to date cooling degree days 0 0  
Moisture  
Dew Point 15 °F    
Average Humidity 50    
Maximum Humidity 77    
Minimum Humidity 23    
Precipitation  
Precipitation 0.00 in 0.02 in 0.35 in (1995)
Month to date precipitation 0.47 0.21  
Year to date precipitation 0.47 0.21  
Snow  
Snow 0.00 in 0.20 in - ()
Month to date snowfall 7.2 3.7  
Since 1 July snowfall 49.8 39.4  
Snow Depth -    
Sea Level Pressure  
Sea Level Pressure 30.18 in    
Wind  
Wind Speed 11 mph (NW)    
Max Wind Speed 31 mph    
Max Gust Speed 41 mph    
Visibility 10 miles    
Events      
T = Trace of Precipitation, MM = Missing Value Source: NWS Daily Summary

Daily Weather History Graph

Daily Weather History Graph

Search for Another Location

Airport:

Trip Planner

Search our weather history database for the weather conditions in past years. The results will help you decide how hot, cold, wet, or windy it might be!

Date:

Astronomy

Jan. 15, 2014 Rise Set
Actual Time 7:42 AM MST 5:06 PM MST
Civil Twilight 7:11 AM MST 5:37 PM MST
Nautical Twilight 6:36 AM MST 6:12 PM MST
Astronomical Twilight 6:02 AM MST 6:46 PM MST
Moon 5:08 PM MST (1/15) 6:59 AM MST (1/15)
Length of Visible Light 10h 26m
Length of Day
9h 23m
Full, 100% of the Moon is Illuminated
Jan 15
Full
Jan 15
Full
Jan 23
Last Quarter
Jan 30
New
Feb 6
First Quarter

Hourly Weather History & Observations

Time (MST) Temp. Windchill Dew Point Humidity Pressure Visibility Wind Dir Wind Speed Gust Speed Precip Events Conditions
12:53 AM 21.9 °F - 16.0 °F 78% 30.32 in 10.0 mi Calm Calm - N/A   Clear
1:53 AM 25.0 °F 20.7 °F 16.0 °F 69% 30.28 in 10.0 mi SE 3.5 mph - N/A   Clear
2:53 AM 27.0 °F 21.6 °F 17.1 °F 66% 30.27 in 10.0 mi South 4.6 mph - N/A   Clear
3:53 AM 28.9 °F - 17.1 °F 61% 30.25 in 10.0 mi Calm Calm - N/A   Clear
4:53 AM 26.1 °F 19.4 °F 17.1 °F 69% 30.25 in 10.0 mi NW 5.8 mph - N/A   Clear
5:53 AM 25.0 °F 20.7 °F 16.0 °F 69% 30.26 in 10.0 mi Variable 3.5 mph - N/A   Clear
6:53 AM 28.0 °F 22.8 °F 17.1 °F 63% 30.23 in 10.0 mi SSW 4.6 mph - N/A   Clear
7:53 AM 28.0 °F 22.8 °F 17.1 °F 63% 30.23 in 10.0 mi ESE 4.6 mph - N/A   Clear
8:53 AM 34.0 °F 28.0 °F 18.0 °F 52% 30.25 in 10.0 mi East 6.9 mph - N/A   Clear
9:53 AM 44.1 °F - 16.0 °F 32% 30.23 in 10.0 mi North - - N/A   Clear
10:53 AM 46.9 °F - 12.9 °F 25% 30.19 in 10.0 mi WNW 18.4 mph 27.6 mph N/A   Clear
11:53 AM 48.0 °F - 12.9 °F 24% 30.15 in 10.0 mi WNW 17.3 mph 24.2 mph N/A   Clear
12:53 PM 48.0 °F - 18.0 °F 30% 30.06 in 10.0 mi NW 8.1 mph - N/A   Clear
1:53 PM 50.0 °F - 16.0 °F 26% 30.05 in 10.0 mi NW 23.0 mph 32.2 mph N/A   Clear
2:53 PM 48.0 °F - 16.0 °F 28% 30.08 in 10.0 mi NW 28.8 mph 39.1 mph N/A   Clear
3:53 PM 48.0 °F - 17.1 °F 29% 30.10 in 10.0 mi NNW 17.3 mph 24.2 mph N/A   Clear
4:53 PM 45.0 °F 36.6 °F 16.0 °F 31% 30.12 in 10.0 mi NW 21.9 mph - N/A   Clear
5:53 PM 42.1 °F 33.6 °F 16.0 °F 35% 30.15 in 10.0 mi NNW 18.4 mph 24.2 mph N/A   Unknown
6:53 PM 43.0 °F 33.1 °F 12.9 °F 30% 30.15 in 10.0 mi NW 26.5 mph 36.8 mph N/A   Clear
7:44 PM 39.0 °F 31.0 °F 15.1 °F 38% 30.14 in 10.0 mi WNW 13.8 mph - N/A   Clear
7:53 PM 39.0 °F 29.9 °F 14.0 °F 36% 30.18 in 10.0 mi WNW 17.3 mph 23.0 mph N/A   Clear
8:53 PM 39.0 °F 34.8 °F 12.0 °F 33% 30.18 in 10.0 mi NW 5.8 mph - N/A   Clear
9:53 PM 37.0 °F 31.0 °F 12.0 °F 36% 30.16 in 10.0 mi WNW 8.1 mph - N/A   Clear
10:53 PM 35.1 °F 31.0 °F 12.0 °F 39% 30.18 in 10.0 mi West 4.6 mph - N/A   Clear
11:53 PM 39.0 °F - 9.0 °F 29% 30.16 in 10.0 mi Calm Calm - N/A   Clear